Погода в Вышнем Ольшаном

Россия / Орловская область     52°08′09″N   37°39′11″E
темп.,
°C
ветер,
м/с
пор.,
м/с
влажн.,
%
обл.,
%
осадки,
мм/ч
давл.,
гПа
погр.,
м
27 ноября, сб
сб2700:00−1ю512805 0.0 1016299
03:00−2ююв5128499 0.0 1014270
06:00−1ююв61591100 0.0 1013394
09:00+1ююв71781100 0.0 1011516
12:00+4ююв91976100 0.0 1008757
15:00+3ююв91990100 1.2 1005783
18:00+3ю91793100 0.5 1004601
21:00+3ю71489100 0.6 1005418
28 ноября, вс
вс2800:00+4ю6139599 0.1 1005333
03:00+3ю5119639 0.1 1005230
06:00+4ююз41098100 0.1 1005283
09:00+5ююз3895100 0.1 1007188
12:00+7зюз368699 0.0 1008527
15:00+7юз348614 0.0 1009140
18:00+5ю3591100 0.0 1010126
21:00+6ю5784100 0.0 1010263
29 ноября, пн
пн2900:00+5ююв41092100 0.0 1010216
03:00+4юв41095100 0.0 1009196
06:00+5юв51198100 0.3 1007304
09:00+7юв61497100 1.1 1004563
12:00+8ююв61497100 1.3 1001601
15:00+9ююв81695100 4.0 997709
18:00+9юв71596100 1.8 993723
21:00+10ю101893100 4.4 988945
30 ноября, вт
вт3000:00+11ююз81690100 6.6 985965
03:00+10ююз13217581 10.2 9831302
06:00+5юз111782100 0.1 9881043
09:00+3зюз111869100 0.1 9911281
12:00+4юз1016645 0.0 9921284
15:00+3юз9156672 0.0 9921244
18:00+2юз91676100 0.0 9931549
21:00+1юз9157185 0.1 9921020
1 декабря, ср
ср100:000зюз8138280 0.0 992940
03:00−1зюз61086100 0.1 994744
06:00−2з71292100 0.8 996891
09:00−2з71177100 0.8 997835
12:00−1з7968100 0.0 9991149
15:00−1зюз5772100 0.1 999934
18:00−2юз4893100 0.1 1000489
21:00−2юз489492 0.3 1000478